STARLINK-32758, 62744

Orbit data source: Space-Track

STARLINK-32758, 62744 is a payload satellite owned by SpaceX/Seattle (US) in LEO that was launched on Tue, 21 Jan 2025 UTC via an FALCON 9 launch vehicle from the Air Force Eastern Test Range (AFETR). Payload-class satellites include a variety of spacecraft equipped with specific instruments for various scientific and technological missions. These include communications satellites like Starlink; space stations such as the ISS; scientific satellites like the Hubble; Earth observation satellites from companies like Planet Labs, Umbra, and HawkEye 360; GPS; miniature CubeSats for education and research; and military/defense satellites.

Loading next visibility...
Identifier
62744, 2025-014K
Orbit
LEO
Country
Flag of USUS
Related business
Manufacturer
SpaceX/Seattle
Mission
Operational Commercial Communications
Bus & Motor
STARLINK V2M, Unknown motor
Mass
730 kg wet, ~700 kg dry
Launch date (UTC)
2025-01-21 (11 months ago)
Launch vehicle
FALCON 9
Launch site
Air Force Eastern Test Range (AFETR)
Object type
Payload
Rocket body
Debris
Shape & HBR
Box + 2 Pan, 17.7 m
Radar Cross Section
33.884 m², Large (>1 m²)

Expand to show TLE details & history
Last TLE update: 20 hours ago

TLE from 20 hours ago
0 STARLINK-32758
1 62744U 25014K   25348.85418248  .00023508  00000-0  86112-3 0  9996
2 62744  42.9984 276.8986 0000776 275.0625  85.0138 15.27577904 50247
Epoch: 2025-12-14T20:30Z
TLE epoch observation values (Epoch: 2025-12-14T20:30:01.366Z)
Latitude
-0.00001°
Longitude
-114.36823°
Altitude
482.784 km
Speed
7.626 km/s
True Right ascension
18h 27m 35s
True Declination
0° 00' 00"
Sunlit
Object was in daylight at epoch
Visualization orbit readout
Latitude
Unknown
Longitude
Unknown
Altitude
Unknown
Speed
Unknown
Apparent Right ascension
Unknown
Apparent Declination
Unknown
Sunlit
N/A
Visualization observer readout
Local Sidereal Time
15:11:09
Azimuth
Unknown
Elevation
Unknown
Doppler factor
Unknown
Orbital elements
Apogee altitude
485.533 km
Perigee altitude
484.468 km
Semi-major axis
6,863.138 km
Eccentricity
0.00008
Inclination
42.9984°
RAAN
276.8986°
Arg. of periapsis
275.0625°
True anomaly
85.02266°
Mean anomaly
85.0138°
Eccentric anomaly
85.01823°
Mean motion
3.81732 °/min
Orbital period
94.31 mins
BSTAR
0.00086112
Loading maneuver chart data...
Computing Atmospheric mass density...
Loading historical data...
Loading historical data...
Loading historical data...
Loading historical data...
Loading historical data...
Loading historical data...
Loading historical data...

Documentation

Showing up to 5 results
|